Location: Newark
(44.4156°N, 12.1972°E)
Time: 00:14:08
(UTC+00:00)

STARLINK-1078 - Pass Details

Date: 02 February 2020
Orbit: 348 x 351 km, 53.0° (Epoch: 17 February)

Event Time Altitude Azimuth Distance (km) Brightness Sun altitude
Rises 17:46:38 0° 294° (WNW) 2,178 7.7 -15.5°
Reaches altitude 10° 17:48:55 10° 278° (W) 1,332 6.8 -15.9°
Maximum altitude 17:51:16 21° 225° (SW) 858 5.3 -16.3°
Drops below altitude 10° 17:53:37 10° 173° (S) 1,327 5.6 -16.7°
Enters shadow 17:54:36 - 163° (SSE) 1,676 6.0 -16.9°
